User: anonymous   Login
Location: Pcim
(49.7500°N, 19.9670°E)
Time: 01:15:08
(UTC+02:00)
Language:

BUGSAT 1 - Orbit

View from above orbital plane
View from above orbital plane
View from above satellite
View from above satellite

Ground track
Ground track

The orbit data is extracted from the following two-line orbital elements,

1 40014U 14033E   24115.56789877  .00009857  00000-0  72408-3 0  9993
2 40014  98.1318 154.4757 0034344 315.2736  44.5720 15.03193695537581
Epoch (UTC): 24 April 2024 13:37:46
Eccentricity: 0.0034344
inclination: 98.1318°
perigee height: 533 km
apogee height: 581 km
right ascension of ascending node: 154.4757°
argument of perigee: 315.2736°
revolutions per day: 15.03193695
mean anomaly at epoch: 44.5720°
orbit number at epoch: 53758

The dashed part of the orbit path shows where the satellite is in the earth's shadow,  

DLR